Location: Stockholm
(59.3330°N, 18.0500°E)
Time: 23:29:01
(UTC+02:00)

NOAA 18 - Pass Details

Date: 02 April 2023
Orbit: 838 x 860 km, 98.9° (Epoch: 02 June)

Event Time Altitude Azimuth Distance (km) Brightness Sun altitude
Exits shadow 22:54:42 29° 199° (SSW) 1,535 6.2 -21.6°
Maximum altitude 22:57:18 51° 260° (W) 1,083 5.8 -21.7°
Drops below altitude 10° 23:02:44 10° 336° (NNW) 2,512 8.8 -22.1°
Sets 23:05:12 0° 341° (NNW) 3,451 9.8 -22.2°
